Princeton, MN

8:20 PM CDT on March 23, 2017 (GMT -0500)
Princeton Municipal

Weather History for KPNM - March, 2014

Change the Weather History Date:

Monday, March 3, 2014

  Actual Average Record
Temperature  
Mean Temperature -8 °F -  
Max Temperature 8 °F 28 °F 41 °F (2001)
Min Temperature -23 °F 11 °F -23 °F (2014)
Degree Days  
Heating Degree Days 72    
Moisture  
Dew Point -12 °F    
Average Humidity 68    
Maximum Humidity 85    
Minimum Humidity 48    
Precipitation  
Precipitation 0.00 in - - ()
Sea Level Pressure  
Sea Level Pressure 30.38 in    
Wind  
Wind Speed 2 mph (SE)    
Max Wind Speed 7 mph    
Max Gust Speed -    
Visibility 9 miles    
Events Snow    
Averages and records for this station are not official NWS values.
T = Trace of Precipitation, MM = Missing Value Source: NWS Daily Summary

Daily Weather History Graph

Daily Weather History Graph

Search for Another Location

Airport or City:

Trip Planner

Search our weather history database for the weather conditions in past years. The results will help you decide how hot, cold, wet, or windy it might be!

Date:

Astronomy

Mar. 03, 2014 Rise Set
Actual Time 6:49 AM CST 6:04 PM CST
Civil Twilight 6:19 AM CST 6:33 PM CST
Nautical Twilight 5:45 AM CST 7:08 PM CST
Astronomical Twilight 5:10 AM CST 7:42 PM CST
Moon 7:48 AM CST (3/3) 9:19 PM CST (3/3)
Length of Visible Light 12h 14m
Length of Day
11h 15m
Waxing Crescent, 8% of the Moon is Illuminated
Mar 3
Waxing Crescent
Mar 8
First Quarter
Mar 16
Full
Mar 23
Last Quarter
Mar 30
New

Hourly Weather History & Observations

Time (CST) Temp. Windchill Dew Point Humidity Pressure Visibility Wind Dir Wind Speed Gust Speed Precip Events Conditions
12:14 AM -11.2 °F -20.6 °F -18.4 °F 70% 30.49 in 10.0 mi WSW 3.5 mph - N/A   Clear
12:33 AM -14.8 °F -24.8 °F -20.2 °F 77% 30.48 in 10.0 mi WNW 3.5 mph - N/A   Clear
12:53 AM -14.8 °F - -20.2 °F 77% 30.48 in 10.0 mi Calm Calm - N/A   Clear
1:13 AM -16.6 °F - -23.8 °F 70% 30.49 in 10.0 mi Calm Calm - N/A   Clear
1:33 AM -18.4 °F -28.9 °F -25.6 °F 70% 30.49 in 10.0 mi West 3.5 mph - N/A   Clear
1:54 AM -16.6 °F - -20.2 °F 84% 30.50 in 10.0 mi Calm Calm - N/A   Clear
2:14 AM -18.4 °F - -23.8 °F 76% 30.50 in 10.0 mi Calm Calm - N/A   Clear
2:33 AM -20.2 °F - -27.4 °F 69% 30.50 in 10.0 mi Calm Calm - N/A   Clear
2:53 AM -18.4 °F - -25.6 °F 70% 30.50 in 10.0 mi Calm Calm - N/A   Clear
3:14 AM -18.4 °F - -22.0 °F 84% 30.49 in 10.0 mi Calm Calm - N/A   Clear
3:33 AM -16.6 °F - -23.8 °F 70% 30.49 in 10.0 mi Calm Calm - N/A   Clear
3:53 AM -18.4 °F - -25.6 °F 70% 30.49 in 10.0 mi Calm Calm - N/A   Clear
4:14 AM -20.2 °F - -25.6 °F 76% 30.48 in 10.0 mi Calm Calm - N/A   Clear
4:33 AM -23.8 °F - -29.2 °F 76% 30.48 in 10.0 mi Calm Calm - N/A   Clear
4:53 AM -20.2 °F - -27.4 °F 69% 30.49 in 10.0 mi Calm Calm - N/A   Clear
5:14 AM -22.0 °F - -27.4 °F 76% 30.48 in 10.0 mi Calm Calm - N/A   Clear
5:33 AM -18.4 °F - -25.6 °F 70% 30.48 in 10.0 mi Calm Calm - N/A   Clear
5:53 AM -20.2 °F - -27.4 °F 69% 30.48 in 10.0 mi Calm Calm - N/A   Clear
6:14 AM -20.2 °F - -25.6 °F 76% 30.48 in 10.0 mi Calm Calm - N/A   Clear
6:33 AM -18.4 °F - -25.6 °F 70% 30.48 in 10.0 mi Calm Calm - N/A   Clear
6:53 AM -16.6 °F - -23.8 °F 70% 30.46 in 10.0 mi Calm Calm - N/A   Clear
7:14 AM -14.8 °F - -20.2 °F 77% 30.46 in 10.0 mi Calm Calm - N/A   Clear
7:33 AM -14.8 °F - -20.2 °F 77% 30.46 in 10.0 mi Calm Calm - N/A   Clear
7:53 AM -13.0 °F - -18.4 °F 77% 30.45 in 10.0 mi Calm Calm - N/A   Clear
8:12 AM -11.2 °F - -16.6 °F 77% 30.45 in 10.0 mi Calm Calm - N/A   Scattered Clouds
8:33 AM -9.4 °F - -16.6 °F 71% 30.44 in 10.0 mi Calm Calm - N/A   Scattered Clouds
8:53 AM -7.6 °F - -14.8 °F 71% 30.44 in 10.0 mi Calm Calm - N/A   Scattered Clouds
9:13 AM -5.8 °F - -14.8 °F 65% 30.45 in 10.0 mi Calm Calm - N/A   Mostly Cloudy
9:33 AM -4.0 °F - -14.8 °F 60% 30.43 in 10.0 mi Calm Calm - N/A   Scattered Clouds
9:53 AM -4.0 °F - -14.8 °F 60% 30.43 in 10.0 mi Calm Calm - N/A   Clear
10:13 AM -2.2 °F - -13.0 °F 60% 30.43 in 10.0 mi Calm Calm - N/A   Scattered Clouds
10:33 AM -0.4 °F - -13.0 °F 55% 30.43 in 10.0 mi Calm Calm - N/A   Scattered Clouds
10:53 AM -0.4 °F - -13.0 °F 55% 30.43 in 10.0 mi Calm Calm - N/A   Scattered Clouds
11:13 AM 1.4 °F -6.2 °F -13.0 °F 51% 30.41 in 10.0 mi SE 3.5 mph - N/A   Scattered Clouds
11:33 AM 1.4 °F - -11.2 °F 56% 30.41 in 10.0 mi Calm Calm - N/A   Scattered Clouds
11:53 AM 3.2 °F -7.8 °F -11.2 °F 51% 30.41 in 10.0 mi South 5.8 mph - N/A   Clear
12:13 PM 3.2 °F -7.8 °F -11.2 °F 51% 30.40 in 10.0 mi South 5.8 mph - N/A   Scattered Clouds
12:33 PM 3.2 °F -4.2 °F -11.2 °F 51% 30.40 in 10.0 mi ESE 3.5 mph - N/A   Scattered Clouds
12:53 PM 5.0 °F -2.1 °F -9.4 °F 52% 30.39 in 10.0 mi SSE 3.5 mph - N/A   Mostly Cloudy
1:13 PM 5.0 °F -2.1 °F -9.4 °F 52% 30.38 in 10.0 mi SE 3.5 mph - N/A   Mostly Cloudy
1:33 PM 6.8 °F -3.5 °F -7.6 °F 52% 30.37 in 10.0 mi South 5.8 mph - N/A   Scattered Clouds
1:53 PM 6.8 °F -0.1 °F -9.4 °F 48% 30.36 in 10.0 mi South 3.5 mph - N/A   Clear
2:13 PM 6.8 °F -4.8 °F -9.4 °F 48% 30.36 in 10.0 mi SSE 6.9 mph - N/A   Clear
2:33 PM 6.8 °F -2.0 °F -9.4 °F 48% 30.35 in 10.0 mi South 4.6 mph - N/A   Scattered Clouds
2:53 PM 6.8 °F -4.8 °F -7.6 °F 52% 30.34 in 10.0 mi SSE 6.9 mph - N/A   Scattered Clouds
3:13 PM 6.8 °F -3.5 °F -7.6 °F 52% 30.34 in 10.0 mi South 5.8 mph - N/A   Scattered Clouds
3:32 PM 8.6 °F 0.1 °F -7.6 °F 48% 30.33 in 10.0 mi South 4.6 mph - N/A   Mostly Cloudy
3:53 PM 8.6 °F -1.3 °F -7.6 °F 48% 30.33 in 10.0 mi SSE 5.8 mph - N/A   Mostly Cloudy
4:13 PM 8.6 °F - -7.6 °F 48% 30.32 in 10.0 mi Calm Calm - N/A   Mostly Cloudy
4:33 PM 8.6 °F -1.3 °F -5.8 °F 52% 30.31 in 10.0 mi SSE 5.8 mph - N/A   Mostly Cloudy
4:53 PM 8.6 °F -1.3 °F -5.8 °F 52% 30.30 in 10.0 mi SSE 5.8 mph - N/A   Overcast
5:13 PM 8.6 °F -1.3 °F -5.8 °F 52% 30.29 in 10.0 mi SE 5.8 mph - N/A   Overcast
5:33 PM 8.6 °F -2.6 °F -5.8 °F 52% 30.28 in 10.0 mi SE 6.9 mph - N/A   Overcast
5:53 PM 8.6 °F 0.1 °F -2.2 °F 62% 30.28 in 7.0 mi SSE 4.6 mph - N/A Snow Light Snow
6:13 PM 6.8 °F -2.0 °F -0.4 °F 72% 30.27 in 4.0 mi SE 4.6 mph - N/A Snow Light Snow
6:33 PM 6.8 °F -0.1 °F 1.4 °F 79% 30.27 in 1.8 mi East 3.5 mph - N/A Snow Light Snow
6:53 PM 6.8 °F - 1.4 °F 79% 30.27 in 2.5 mi Calm Calm - N/A Snow Light Snow
7:13 PM 6.8 °F -0.1 °F 1.4 °F 79% 30.27 in 3.0 mi East 3.5 mph - N/A Snow Light Snow
7:33 PM 6.8 °F -0.1 °F 1.4 °F 79% 30.26 in 5.0 mi East 3.5 mph - N/A Snow Light Snow
7:53 PM 6.8 °F -2.0 °F 3.2 °F 85% 30.26 in 2.0 mi ESE 4.6 mph - N/A Snow Light Snow
8:13 PM 6.8 °F -2.0 °F 3.2 °F 85% 30.25 in 3.0 mi East 4.6 mph - N/A Snow Light Snow
8:33 PM 6.8 °F -0.1 °F 3.2 °F 85% 30.24 in 1.5 mi East 3.5 mph - N/A Snow Light Snow
8:53 PM 6.8 °F - 3.2 °F 85% 30.25 in 1.8 mi Calm Calm - N/A Snow Light Snow
9:13 PM 6.8 °F - 3.2 °F 85% 30.24 in 5.0 mi Calm Calm - N/A Snow Light Snow
9:33 PM 6.8 °F -2.0 °F 3.2 °F 85% 30.22 in 10.0 mi East 4.6 mph - N/A   Overcast
9:53 PM 6.8 °F -3.5 °F 3.2 °F 85% 30.21 in 10.0 mi East 5.8 mph - N/A   Overcast
10:13 PM 8.6 °F -2.6 °F 3.2 °F 79% 30.21 in 10.0 mi ESE 6.9 mph - N/A   Overcast
10:33 PM 8.6 °F -2.6 °F 3.2 °F 79% 30.21 in 10.0 mi ESE 6.9 mph - N/A   Overcast
10:53 PM 8.6 °F 0.1 °F 3.2 °F 79% 30.21 in 10.0 mi ESE 4.6 mph - N/A   Overcast
11:13 PM 8.6 °F -2.6 °F 3.2 °F 79% 30.21 in 10.0 mi ESE 6.9 mph - N/A   Overcast
11:33 PM 8.6 °F - 3.2 °F 79% 30.22 in 10.0 mi Calm Calm - N/A   Overcast
11:53 PM 8.6 °F 2.0 °F 1.4 °F 73% 30.22 in 10.0 mi SE 3.5 mph - N/A   Overcast